ASX454 LIRF-LICG

Flight info

Callsign ASX454
Flight time N/A
Altitude 37000
Route KONUT Z923 RONAB DCT ADUKA M740 ROBET
Aircraft A20N/M-SDE2E3FGHIJ1RWXY/LB1

Departure

Time 2026-05-06 10:26
Airport Rome–Fiumicino Leonardo da Vinci International Airport (LIRF)

Arrival

Time N/A
Airport Pantelleria Airport (LICG)
Time Latitude Longitude Altitude Speed Heading
2026-05-06 10:07 41.79902 12.26619 11 ft 0 kts 250°
2026-05-06 10:20 41.79901 12.26618 11 ft 1 kts 250°
2026-05-06 10:20 41.79894 12.26591 12 ft 2 kts 249°
2026-05-06 10:20 41.79894 12.26572 12 ft 2 kts 282°
2026-05-06 10:20 41.79914 12.26548 12 ft 6 kts 345°
2026-05-06 10:21 41.79977 12.26514 13 ft 13 kts 334°
2026-05-06 10:21 41.80074 12.26465 13 ft 15 kts 344°
2026-05-06 10:21 41.80175 12.26419 14 ft 11 kts 339°
2026-05-06 10:21 41.80252 12.26401 13 ft 11 kts 335°
2026-05-06 10:22 41.80301 12.26307 14 ft 12 kts 296°
2026-05-06 10:22 41.80338 12.26203 16 ft 11 kts 309°
2026-05-06 10:22 41.80410 12.26163 17 ft 11 kts
2026-05-06 10:22 41.80495 12.26198 16 ft 14 kts 32°
2026-05-06 10:23 41.80548 12.26323 14 ft 17 kts 71°
2026-05-06 10:23 41.80593 12.26482 14 ft 18 kts 70°
2026-05-06 10:23 41.80640 12.26656 10 ft 21 kts 70°
2026-05-06 10:23 41.80690 12.26846 10 ft 21 kts 71°
2026-05-06 10:24 41.80734 12.26997 10 ft 15 kts 64°
2026-05-06 10:24 41.80823 12.27034 10 ft 14 kts 339°
2026-05-06 10:24 41.80838 12.27027 10 ft 0 kts 339°
2026-05-06 10:25 41.80842 12.27025 10 ft 1 kts 340°
2026-05-06 10:25 41.80884 12.27004 11 ft 9 kts 340°
2026-05-06 10:25 41.80954 12.26951 12 ft 13 kts 290°
2026-05-06 10:25 41.80912 12.26754 10 ft 45 kts 251°
2026-05-06 10:26 41.80714 12.26037 17 ft 115 kts 249°
2026-05-06 10:26 41.80367 12.24773 40 ft 167 kts 246°
2026-05-06 10:26 41.79966 12.23307 563 ft 172 kts 246°
2026-05-06 10:26 41.79539 12.21801 1253 ft 174 kts 244°
2026-05-06 10:27 41.79241 12.20240 1949 ft 177 kts 259°
2026-05-06 10:27 41.79171 12.18548 2396 ft 192 kts 264°
2026-05-06 10:27 41.79136 12.16705 2809 ft 207 kts 260°
2026-05-06 10:27 41.78576 12.14901 3123 ft 219 kts 219°
2026-05-06 10:28 41.77197 12.14033 3635 ft 227 kts 187°
2026-05-06 10:28 41.75536 12.13792 3930 ft 247 kts 185°
2026-05-06 10:28 41.73798 12.13530 4438 ft 259 kts 187°
2026-05-06 10:28 41.72027 12.13192 5402 ft 258 kts 189°
2026-05-06 10:29 41.70272 12.12802 6264 ft 261 kts 191°
2026-05-06 10:29 41.68475 12.12363 7097 ft 265 kts 192°
2026-05-06 10:29 41.66666 12.11897 7936 ft 269 kts 193°
2026-05-06 10:29 41.64812 12.11405 8776 ft 273 kts 194°
2026-05-06 10:30 41.62964 12.10905 9591 ft 277 kts 194°
2026-05-06 10:30 41.61081 12.10390 10378 ft 281 kts 194°
2026-05-06 10:30 41.59114 12.09848 10878 ft 296 kts 194°
2026-05-06 10:30 41.57050 12.09275 11266 ft 314 kts 194°
2026-05-06 10:31 41.54829 12.08661 11648 ft 332 kts 194°
2026-05-06 10:31 41.52518 12.08024 12060 ft 346 kts 194°
2026-05-06 10:31 41.50153 12.07375 12735 ft 352 kts 194°
2026-05-06 10:31 41.47754 12.06720 13467 ft 356 kts 194°
2026-05-06 10:32 41.45304 12.06049 14205 ft 360 kts 194°
2026-05-06 10:32 41.42879 12.05385 14927 ft 362 kts 194°
2026-05-06 10:32 41.40408 12.04709 15648 ft 365 kts 194°
2026-05-06 10:32 41.37907 12.04025 16358 ft 367 kts 194°
2026-05-06 10:33 41.35419 12.03345 17033 ft 369 kts 194°
2026-05-06 10:33 41.32879 12.02650 17696 ft 372 kts 194°
2026-05-06 10:33 41.30355 12.02008 18308 ft 376 kts 192°
2026-05-06 10:33 41.27749 12.01552 18940 ft 379 kts 188°
2026-05-06 10:34 41.25098 12.01282 19547 ft 382 kts 187°
2026-05-06 10:34 41.22476 12.01043 20104 ft 385 kts 187°
2026-05-06 10:34 41.19784 12.00801 20658 ft 388 kts 187°
2026-05-06 10:34 41.17064 12.00555 21209 ft 391 kts 187°
2026-05-06 10:35 41.14371 12.00312 21739 ft 394 kts 187°
2026-05-06 10:35 41.11612 12.00064 22257 ft 397 kts 187°
2026-05-06 10:35 41.08885 11.99820 22720 ft 400 kts 188°
2026-05-06 10:35 41.06085 11.99569 23198 ft 403 kts 188°
2026-05-06 10:36 41.03295 11.99318 23704 ft 405 kts 188°
2026-05-06 10:36 41.00465 11.99063 24194 ft 408 kts 188°
2026-05-06 10:36 40.97637 11.98810 24695 ft 410 kts 188°
2026-05-06 10:36 40.94795 11.98554 25161 ft 412 kts 188°
2026-05-06 10:37 40.91964 11.98301 25610 ft 414 kts 188°
2026-05-06 10:37 40.89079 11.98043 26064 ft 415 kts 188°
2026-05-06 10:37 40.86172 11.97786 26490 ft 417 kts 188°
2026-05-06 10:37 40.83276 11.97532 26923 ft 419 kts 188°
2026-05-06 10:38 40.80374 11.97275 27339 ft 421 kts 188°
2026-05-06 10:38 40.77474 11.97019 27712 ft 423 kts 188°
2026-05-06 10:38 40.74522 11.96757 28052 ft 426 kts 188°
2026-05-06 10:38 40.71534 11.96493 28396 ft 428 kts 188°
2026-05-06 10:39 40.68593 11.96233 28765 ft 429 kts 188°
2026-05-06 10:39 40.65593 11.95967 29088 ft 430 kts 188°
2026-05-06 10:39 40.62635 11.95706 29400 ft 432 kts 188°
2026-05-06 10:39 40.59629 11.95444 29820 ft 430 kts 188°
2026-05-06 10:40 40.56675 11.95185 30284 ft 428 kts 188°
2026-05-06 10:40 40.53714 11.94925 30711 ft 427 kts 188°
2026-05-06 10:40 40.50722 11.94662 31130 ft 426 kts 188°
2026-05-06 10:40 40.47798 11.94404 31564 ft 424 kts 188°
2026-05-06 10:41 40.44878 11.94148 31964 ft 423 kts 188°
2026-05-06 10:41 40.41965 11.93893 32355 ft 421 kts 188°
2026-05-06 10:41 40.39032 11.93637 32760 ft 419 kts 188°
2026-05-06 10:41 40.36147 11.93383 33126 ft 418 kts 188°
2026-05-06 10:42 40.33247 11.93128 33481 ft 416 kts 189°
2026-05-06 10:42 40.30367 11.92876 33787 ft 416 kts 188°
2026-05-06 10:42 40.27478 11.92622 34131 ft 414 kts 189°
2026-05-06 10:42 40.24647 11.92375 34446 ft 412 kts 189°
2026-05-06 10:43 40.21774 11.92124 34738 ft 411 kts 189°
2026-05-06 10:43 40.18924 11.91874 34973 ft 410 kts 189°
2026-05-06 10:43 40.16091 11.91627 35154 ft 411 kts 189°
2026-05-06 10:44 40.10382 11.91132 35498 ft 413 kts 189°
2026-05-06 10:44 40.07505 11.90881 35651 ft 413 kts 189°
2026-05-06 10:44 40.04647 11.90633 35829 ft 413 kts 189°
2026-05-06 10:44 40.01791 11.90386 35966 ft 414 kts 189°
2026-05-06 10:45 39.98904 11.90138 36072 ft 416 kts 189°
2026-05-06 10:45 39.93115 11.89635 36302 ft 418 kts 189°
2026-05-06 10:45 39.90237 11.89389 36441 ft 418 kts 189°
2026-05-06 10:46 39.87309 11.89212 36520 ft 421 kts 186°
2026-05-06 10:46 39.81433 11.89370 36764 ft 425 kts 184°
2026-05-06 10:46 39.78439 11.89508 36883 ft 427 kts 184°
2026-05-06 10:47 39.75513 11.89639 36971 ft 428 kts 184°
2026-05-06 10:47 39.69552 11.89909 36972 ft 429 kts 184°
2026-05-06 10:48 39.63571 11.90184 36978 ft 429 kts 184°
2026-05-06 10:48 39.57606 11.90461 36975 ft 430 kts 184°
2026-05-06 10:49 39.51638 11.90733 36973 ft 431 kts 184°
2026-05-06 10:49 39.45636 11.91010 36970 ft 432 kts 184°
2026-05-06 10:50 39.39617 11.91286 36972 ft 434 kts 184°
2026-05-06 10:50 39.33616 11.91560 36976 ft 433 kts 184°
2026-05-06 10:51 39.27589 11.91835 36633 ft 434 kts 183°
2026-05-06 10:51 39.24548 11.91975 36375 ft 431 kts 183°
2026-05-06 10:51 39.21589 11.92111 36128 ft 430 kts 183°
2026-05-06 10:51 39.18586 11.92249 35870 ft 428 kts 183°
2026-05-06 10:52 39.15619 11.92385 35618 ft 426 kts 183°
2026-05-06 10:52 39.12652 11.92521 35358 ft 427 kts 183°
2026-05-06 10:52 39.09693 11.92656 35101 ft 427 kts 183°
2026-05-06 10:52 39.06727 11.92788 34851 ft 427 kts 183°
2026-05-06 10:53 39.03772 11.92921 34605 ft 428 kts 183°
2026-05-06 10:53 39.00818 11.93055 34330 ft 429 kts 183°
2026-05-06 10:53 38.97809 11.93194 34038 ft 429 kts 183°
2026-05-06 10:53 38.94839 11.93327 33756 ft 429 kts 183°
2026-05-06 10:54 38.91834 11.93462 33471 ft 432 kts 183°
2026-05-06 10:54 38.88829 11.93598 33187 ft 432 kts 183°
2026-05-06 10:54 38.85840 11.93736 32906 ft 433 kts 183°
2026-05-06 10:54 38.82807 11.93873 32619 ft 435 kts 183°
2026-05-06 10:55 38.79764 11.94011 32334 ft 436 kts 183°
2026-05-06 10:55 38.76760 11.94148 32054 ft 437 kts 182°
2026-05-06 10:55 38.73732 11.94284 31780 ft 437 kts 182°
2026-05-06 10:55 38.70701 11.94421 31500 ft 438 kts 183°
2026-05-06 10:56 38.67631 11.94562 31216 ft 439 kts 182°
2026-05-06 10:56 38.64586 11.94700 30939 ft 440 kts 182°
2026-05-06 10:56 38.61509 11.94839 30665 ft 441 kts 182°
2026-05-06 10:56 38.58441 11.94979 30388 ft 442 kts 182°
2026-05-06 10:57 38.55358 11.95116 30112 ft 442 kts 182°
2026-05-06 10:57 38.52271 11.95250 29843 ft 444 kts 182°
2026-05-06 10:57 38.49210 11.95386 29577 ft 444 kts 182°
2026-05-06 10:57 38.46120 11.95521 29316 ft 445 kts 182°
2026-05-06 10:58 38.43016 11.95659 29051 ft 445 kts 182°
2026-05-06 10:58 38.39955 11.95796 28790 ft 443 kts 182°
2026-05-06 10:58 38.36890 11.95905 28527 ft 440 kts 183°
2026-05-06 10:58 38.33845 11.95943 28258 ft 438 kts 184°
2026-05-06 10:59 38.30800 11.95966 27994 ft 436 kts 184°
2026-05-06 10:59 38.27770 11.95991 27731 ft 434 kts 184°
2026-05-06 10:59 38.24735 11.96019 27467 ft 433 kts 184°
2026-05-06 10:59 38.21761 11.96050 27208 ft 431 kts 184°
2026-05-06 11:00 38.18746 11.96085 26938 ft 430 kts 184°
2026-05-06 11:00 38.15785 11.96121 26679 ft 427 kts 183°
2026-05-06 11:00 38.12835 11.96158 26418 ft 426 kts 184°
2026-05-06 11:00 38.09875 11.96196 26156 ft 422 kts 183°
2026-05-06 11:01 38.06935 11.96232 25974 ft 422 kts 183°
2026-05-06 11:01 38.04017 11.96271 25839 ft 421 kts 183°
2026-05-06 11:01 38.01074 11.96309 25709 ft 420 kts 183°
2026-05-06 11:01 37.98166 11.96347 25578 ft 419 kts 183°
2026-05-06 11:02 37.95273 11.96382 25449 ft 419 kts 183°
2026-05-06 11:02 37.92346 11.96422 25323 ft 416 kts 183°
2026-05-06 11:02 37.89467 11.96459 25223 ft 414 kts 183°
2026-05-06 11:02 37.86579 11.96500 24800 ft 410 kts 183°
2026-05-06 11:03 37.83763 11.96536 24173 ft 408 kts 183°
2026-05-06 11:03 37.80926 11.96574 23556 ft 405 kts 183°
2026-05-06 11:03 37.78153 11.96611 23023 ft 401 kts 183°
2026-05-06 11:03 37.75362 11.96648 22484 ft 397 kts 183°
2026-05-06 11:04 37.72612 11.96682 21911 ft 395 kts 183°
2026-05-06 11:04 37.69890 11.96719 21341 ft 392 kts 183°
2026-05-06 11:04 37.67162 11.96753 20782 ft 390 kts 183°
2026-05-06 11:04 37.64484 11.96787 20228 ft 387 kts 183°
2026-05-06 11:05 37.61789 11.96822 19682 ft 384 kts 183°
2026-05-06 11:05 37.59135 11.96854 19134 ft 381 kts 183°
2026-05-06 11:05 37.56516 11.96887 18583 ft 378 kts 183°
2026-05-06 11:05 37.53878 11.96922 18042 ft 375 kts 183°
2026-05-06 11:06 37.51302 11.96955 17531 ft 372 kts 183°
2026-05-06 11:06 37.48725 11.96989 17044 ft 368 kts 182°
2026-05-06 11:06 37.46185 11.97021 16554 ft 364 kts 182°
2026-05-06 11:06 37.43666 11.97054 16057 ft 360 kts 182°
2026-05-06 11:07 37.41192 11.97087 15566 ft 356 kts 182°
2026-05-06 11:07 37.38737 11.97119 15068 ft 353 kts 183°
2026-05-06 11:07 37.36288 11.97150 14562 ft 349 kts 182°
2026-05-06 11:07 37.33882 11.97181 14057 ft 346 kts 182°
2026-05-06 11:08 37.31465 11.97213 13553 ft 343 kts 182°
2026-05-06 11:08 37.29091 11.97241 13055 ft 339 kts 182°
2026-05-06 11:08 37.26768 11.97270 12542 ft 337 kts 182°
2026-05-06 11:08 37.24424 11.97299 11994 ft 336 kts 182°
2026-05-06 11:09 37.22108 11.97328 11453 ft 334 kts 182°
2026-05-06 11:09 37.19783 11.97358 10919 ft 332 kts 181°
2026-05-06 11:09 37.17482 11.97389 10440 ft 329 kts 181°
2026-05-06 11:09 37.15247 11.97418 10235 ft 317 kts 181°
2026-05-06 11:10 37.13055 11.97449 10036 ft 306 kts 181°
2026-05-06 11:10 37.10961 11.97476 9843 ft 295 kts 181°
2026-05-06 11:10 37.08960 11.97501 9659 ft 285 kts 181°
2026-05-06 11:10 37.06998 11.97527 9478 ft 275 kts 181°
2026-05-06 11:11 37.05113 11.97355 9219 ft 267 kts 194°
2026-05-06 11:11 37.03400 11.96565 8843 ft 265 kts 208°
2026-05-06 11:11 37.01793 11.95401 8458 ft 265 kts 210°
2026-05-06 11:11 37.00220 11.94219 7947 ft 264 kts 210°